Location: Pesaro
(43.9000°N, 12.9170°E)
Time: 16:27:53
(UTC+01:00)

ISS - Visible Passes

Search period start: 11 December 2018 00:00
Search period end: 21 December 2018 00:00
Orbit: 401 x 408 km, 51.6° (Epoch: 12 December)

Date Brightness Start Highest point End Pass type
(mag) Time Alt. Az. Time Alt. Az. Time Alt. Az.
11 Dec -2.9 18:15:02 10° WNW 18:18:11 46° SW 18:19:44 25° SSE visible
12 Dec -3.8 17:22:45 10° WNW 17:26:02 85° SSW 17:29:17 10° SE visible
12 Dec -0.6 19:00:55 10° WSW 19:02:01 11° SW 19:03:08 10° SSW visible
13 Dec -1.2 18:07:31 10° W 18:10:02 21° SW 18:12:32 10° S visible
14 Dec -2.1 17:14:55 10° WNW 17:17:58 37° SW 17:21:00 10° SSE visible
16 Dec -0.6 17:07:32 10° W 17:09:43 17° SW 17:11:53 10° S visible
